This is the latest recevied weather packets stored in our database for station/object IZ4UFQ-10. If no packets are shown the sender has not sent any weather packets the latest 10 day(s).
| Time | Temp. | Humidity | Pressure | Rain* | Wind** | Luminosity | Snow |
|---|---|---|---|---|---|---|---|
| 1777980982 | 16.67° C | 93% | 1012.4 hPa | 0 mm | - | 694 W/m² | - |
| 1777980682 | 16.67° C | 93% | 1012.4 hPa | 0 mm | - | 397 W/m² | - |
| 1777980382 | 16.67° C | 93% | 1012.3 hPa | 0 mm | - | 1155 W/m² | - |
| 1777980082 | 16.11° C | 93% | 1012.2 hPa | 0 mm | - | 564 W/m² | - |
| 1777979781 | 16.11° C | 93% | 1012.4 hPa | 0 mm | - | 381 W/m² | - |
| 1777979481 | 16.11° C | 93% | 1012.4 hPa | 0 mm | - | 207 W/m² | - |
| 1777979181 | 16.11° C | 93% | 1012.5 hPa | 0 mm | - | 199 W/m² | - |
| 1777978880 | 16.11° C | 93% | 1012.6 hPa | 0.51 mm | - | 243 W/m² | - |
| 1777978580 | 15.56° C | 93% | 1012.6 hPa | 0.76 mm | - | 338 W/m² | - |
| 1777978280 | 15.56° C | 94% | 1012.7 hPa | 1.52 mm | - | 415 W/m² | - |
| 1777977980 | 15.56° C | 93% | 1012.7 hPa | 2.03 mm | - | 281 W/m² | - |
| 1777977679 | 15.56° C | 92% | 1012.7 hPa | 2.29 mm | - | 234 W/m² | - |
| 1777977379 | 15.56° C | 93% | 1012.6 hPa | 2.29 mm | - | 137 W/m² | - |
| 1777977079 | 15.56° C | 93% | 1012.6 hPa | 2.29 mm | - | 169 W/m² | - |
| 1777976778 | 15.56° C | 93% | 1012.6 hPa | 2.29 mm | - | 227 W/m² | - |
| 1777976478 | 15.56° C | 92% | 1012.6 hPa | 2.29 mm | - | 214 W/m² | - |
| 1777976178 | 15.56° C | 92% | 1012.7 hPa | 2.54 mm | - | 141 W/m² | - |
| 1777975878 | 15.56° C | 92% | 1012.7 hPa | 2.54 mm | - | 128 W/m² | - |
| 1777975577 | 15.56° C | 92% | 1012.6 hPa | 2.54 mm | - | 142 W/m² | - |
| 1777975277 | 15.56° C | 91% | 1012.6 hPa | 2.03 mm | - | 155 W/m² | - |
| 1777974977 | 15.56° C | 91% | 1012.8 hPa | 1.78 mm | - | 95 W/m² | - |
| 1777974676 | 15.56° C | 91% | 1012.9 hPa | 1.02 mm | - | 86 W/m² | - |
| 1777974376 | 15.56° C | 91% | 1012.9 hPa | 0.51 mm | - | 83 W/m² | - |
| 1777974076 | 15.56° C | 91% | 1012.7 hPa | 0.25 mm | - | 86 W/m² | - |
| 1777973776 | 15.56° C | 90% | 1012.7 hPa | 0.25 mm | - | 72 W/m² | - |
* Rain latest hour (hover to see other rain measurements)
** Current wind speed in m/s (hover to see current wind gust speed)